Powrót do katalogu

STARLINK-33973

AktywnyŁącznośćVLEO
NORAD 63894·PAYLOAD·🇺🇸 United States

Wystrzelony May 10, 2025 z Cape Canaveral Space Force Station

Loading…

Następne Przeloty (najbliższe 24 godziny)

TLE

ŚwieżeSource: CelesTrak SupGP

Epoka: Sep 15, 2026, 03:07 UTC

1 63894C 25095E   26258.13034722 -.00021165  00000+0 -76683-3 0  2583
2 63894  43.0027 185.9494 0001420 273.1690 137.9890 15.27578969    10

Śledź STARLINK-33973 w czasie rzeczywistym z AllMySat

Download on the App Store